Location: Dal�� Lhota
(48.7500°N, 14.0167°E)
Time: 18:08:32
(UTC+00:00)

Explorer 7 - Pass Details

Date: 05 August 2021
Orbit: 484 x 676 km, 50.3° (Epoch: 21 September)

Event Time Altitude Azimuth Distance (km) Brightness Sun altitude
Rises 07:13:29 0° 287° (WNW) 2,621 9.8 32.8°
Reaches altitude 10° 07:15:38 10° 285° (WNW) 1,758 9.0 33.2°
Maximum altitude 07:19:36 68° 202° (SSW) 586 7.4 33.8°
Drops below altitude 10° 07:23:48 10° 120° (ESE) 1,863 10.8 34.5°
Sets 07:26:08 0° 118° (ESE) 2,794 11.4 34.9°
